W2JV-2 Weather Reports


time (UTC)temp
C
wind
direction
speed
KPH
gust
KPH
rain 1hr
cm
rain 24hr
cm
rain mn
cm
humidity
%
barometer
mb
20260504175503 22 220 6.4 16.1 0.00 0.00 0.00 36 1010.8
20260504175004 22 241 8.0 19.3 0.00 0.00 0.00 35 1010.8
20260504174503 22 239 11.3 16.1 0.00 0.00 0.00 34 1011.0
20260504174003 21 209 4.8 19.3 0.00 0.00 0.00 38 1011.0
20260504173504 22 220 9.7 20.9 0.00 0.00 0.00 36 1010.9
20260504173005 22 227 8.0 16.1 0.00 0.00 0.00 37 1011.0
20260504172503 22 217 8.0 16.1 0.00 0.00 0.00 35 1011.0
20260504172004 22 236 8.0 19.3 0.00 0.00 0.00 34 1011.1
20260504171503 21 188 6.4 16.1 0.00 0.00 0.00 37 1011.2
20260504171003 21 209 8.0 16.1 0.00 0.00 0.00 35 1011.3
20260504170502 21 201 4.8 16.1 0.00 0.00 0.00 36 1011.4
20260504151004 19 251 9.7 22.5 0.00 0.00 0.00 30 1012.7
20260504141003 18 216 9.7 20.9 0.00 0.00 0.00 36 1012.8
20260504140503 18 219 11.3 22.5 0.00 0.00 0.00 38 1012.8
20260504130503 15 229 8.0 20.9 0.00 0.00 0.00 44 1013.4
20260504110503 11 186 1.6 4.8 0.00 0.00 0.00 52 1013.6
20260504082003 10 187 0.0 4.8 0.00 0.00 0.00 48 1012.8
20260504081503 10 186 0.0 4.8 0.00 0.00 0.00 48 1012.8
20260504081005 10 188 1.6 4.8 0.00 0.00 0.00 49 1012.8
20260504050503 10 186 0.0 3.2 0.00 0.00 0.00 52 1012.1
20260504045003 9 186 1.6 3.2 0.00 0.00 0.00 51 1012.2
20260504044003 9 186 0.0 1.6 0.00 0.00 0.00 49 1012.1
20260504043504 10 186 0.0 3.2 0.00 0.00 0.00 49 1012.1
20260504043003 10 186 0.0 4.8 0.00 0.00 0.00 48 1012.0
20260504042003 10 186 0.0 3.2 0.00 0.00 0.00 48 1012.0
20260504041503 10 186 0.0 3.2 0.00 0.00 0.00 48 1012.0
20260504041004 10 186 0.0 0.0 0.00 0.00 0.00 46 1012.0
20260504040503 10 186 0.0 1.6 0.00 0.00 0.00 48 1012.1
20260504040004 10 186 0.0 3.2 0.00 0.00 0.00 46 1012.0
20260504035003 10 186 0.0 3.2 0.00 0.00 0.00 46 1012.0
20260504034003 10 186 0.0 3.2 0.00 0.00 0.00 48 1011.9
20260504033504 10 186 0.0 3.2 0.00 0.00 0.00 45 1011.9
20260504033003 10 186 0.0 3.2 0.00 0.00 0.00 44 1011.9
20260504032005 10 186 0.0 3.2 0.00 0.00 0.00 45 1011.9
20260504031004 10 186 0.0 4.8 0.00 0.00 0.00 44 1011.9
20260504030505 10 186 1.6 3.2 0.00 0.00 0.00 45 1011.9
20260504030003 10 186 0.0 3.2 0.00 0.00 0.00 45 1011.9
20260504025503 10 186 0.0 3.2 0.00 0.00 0.00 46 1011.9
20260504025003 10 186 0.0 3.2 0.00 0.00 0.00 45 1011.9
20260504024503 10 186 1.6 4.8 0.00 0.00 0.00 45 1011.9
20260504024003 10 186 0.0 4.8 0.00 0.00 0.00 45 1011.9
20260504023503 10 186 0.0 0.0 0.00 0.00 0.00 45 1011.9
20260504023003 10 186 0.0 0.0 0.00 0.00 0.00 45 1011.9
20260504022503 10 186 0.0 0.0 0.00 0.00 0.00 46 1011.9
20260504022004 10 186 0.0 0.0 0.00 0.00 0.00 48 1011.9
20260504021503 10 186 0.0 3.2 0.00 0.00 0.00 49 1011.9
20260504021004 10 186 0.0 0.0 0.00 0.00 0.00 47 1011.8
20260504020004 11 187 0.0 0.0 0.00 0.00 0.00 44 1011.8
20260504015505 11 187 0.0 0.0 0.00 0.00 0.00 43 1011.8
20260504015003 11 187 0.0 0.0 0.00 0.00 0.00 43 1011.8
20260504014503 11 187 0.0 0.0 0.00 0.00 0.00 41 1011.8
20260504014004 11 187 0.0 0.0 0.00 0.00 0.00 39 1011.8
20260504013503 11 187 0.0 0.0 0.00 0.00 0.00 40 1011.7
20260504013004 11 187 0.0 0.0 0.00 0.00 0.00 39 1011.6
20260504012504 11 187 0.0 0.0 0.00 0.00 0.00 39 1011.6
20260504012004 11 188 0.0 0.0 0.00 0.00 0.00 40 1011.6
20260504011503 11 187 0.0 0.0 0.00 0.00 0.00 39 1011.5
20260504011004 11 187 0.0 0.0 0.00 0.00 0.00 40 1011.5
20260504010514 12 187 0.0 0.0 0.00 0.00 0.00 39 1011.4
20260504005004 12 188 0.0 0.0 0.00 0.00 0.00 39 1011.2
20260504004504 12 188 0.0 0.0 0.00 0.00 0.00 38 1011.1
20260504004004 12 188 0.0 0.0 0.00 0.00 0.00 37 1011.0
20260504003503 12 188 0.0 0.0 0.00 0.00 0.00 39 1011.0
20260504003003 12 188 0.0 0.0 0.00 0.00 0.00 37 1010.9
20260504002503 12 188 0.0 0.0 0.00 0.00 0.00 38 1010.8
20260504001503 12 188 0.0 0.0 0.00 0.00 0.00 38 1010.6
20260504000503 12 188 0.0 0.0 0.00 0.00 0.00 36 1010.5
20260504000004 12 188 0.0 0.0 0.00 0.00 0.00 35 1010.4
20260503235503 12 188 0.0 0.0 0.00 0.00 0.00 37 1010.4
20260503235004 12 189 0.0 0.0 0.00 0.00 0.00 35 1010.3
20260503234004 13 189 0.0 0.0 0.00 0.00 0.00 36 1010.3
20260503233003 13 188 0.0 0.0 0.00 0.00 0.00 35 1010.2
20260503232504 13 188 0.0 0.0 0.00 0.00 0.00 34 1010.1
20260503232003 13 188 0.0 0.0 0.00 0.00 0.00 32 1010.1
20260503231504 13 188 0.0 0.0 0.00 0.00 0.00 33 1010.0
20260503230504 14 189 1.6 4.8 0.00 0.00 0.00 31 1010.0
20260503230004 14 191 3.2 8.0 0.00 0.00 0.00 30 1009.8
20260503225504 14 193 1.6 4.8 0.00 0.00 0.00 32 1009.8
20260503225005 14 192 0.0 8.0 0.00 0.00 0.00 31 1009.8
20260503224503 14 190 1.6 4.8 0.00 0.00 0.00 32 1009.8
20260503224003 14 192 1.6 4.8 0.00 0.00 0.00 33 1009.8
20260503223503 14 190 1.6 4.8 0.00 0.00 0.00 32 1009.8
20260503222503 14 188 1.6 9.7 0.00 0.00 0.00 30 1009.7
20260503222003 15 191 1.6 4.8 0.00 0.00 0.00 32 1009.7
20260503221504 15 194 1.6 4.8 0.00 0.00 0.00 32 1009.6
20260503221003 15 190 3.2 8.0 0.00 0.00 0.00 30 1009.7
20260503220503 15 190 1.6 8.0 0.00 0.00 0.00 31 1009.8
20260503220004 15 190 3.2 8.0 0.00 0.00 0.00 29 1009.7
20260503215505 15 190 3.2 8.0 0.00 0.00 0.00 29 1009.6
20260503215004 15 191 3.2 9.7 0.00 0.00 0.00 29 1009.7
20260503214504 15 189 3.2 9.7 0.00 0.00 0.00 30 1009.6
20260503214004 15 191 3.2 12.9 0.00 0.00 0.00 30 1009.6
20260503213504 15 189 3.2 8.0 0.00 0.00 0.00 30 1009.6
20260503213003 15 353 3.2 11.3 0.00 0.00 0.00 30 1009.5
20260503212503 15 264 3.2 11.3 0.00 0.00 0.00 29 1009.5
20260503212003 15 21 6.4 19.3 0.00 0.00 0.00 28 1009.4
20260503211504 15 334 1.6 11.3 0.00 0.00 0.00 30 1009.5
20260503211005 15 335 4.8 14.5 0.00 0.00 0.00 27 1009.5
20260503210504 15 338 6.4 16.1 0.00 0.00 0.00 28 1009.4
20260503210003 15 340 3.2 14.5 0.00 0.00 0.00 31 1009.4
20260503204503 15 300 4.8 12.9 0.00 0.00 0.00 28 1009.4
20260503204003 15 315 4.8 12.9 0.00 0.00 0.00 31 1009.3
20260503203504 15 333 3.2 11.3 0.00 0.00 0.00 30 1009.4
20260503203004 15 273 4.8 12.9 0.00 0.00 0.00 31 1009.4
20260503202504 15 286 6.4 11.3 0.00 0.00 0.00 29 1009.4
20260503202004 15 305 4.8 19.3 0.00 0.00 0.00 32 1009.5
20260503201505 15 314 4.8 14.5 0.00 0.00 0.00 30 1009.5
20260503200504 15 271 6.4 14.5 0.00 0.00 0.00 31 1009.6
20260503200004 15 311 3.2 4.8 0.00 0.00 0.00 33 1009.7
20260503195503 15 289 6.4 19.3 0.00 0.00 0.00 33 1009.7
20260503195003 15 282 6.4 12.9 0.00 0.00 0.00 31 1009.7
20260503194004 15 336 4.8 11.3 0.00 0.00 0.00 30 1009.8
20260503193503 15 300 9.7 19.3 0.00 0.00 0.00 32 1009.8
20260503193004 15 283 4.8 12.9 0.00 0.00 0.00 33 1009.8
20260503192503 14 294 4.8 14.5 0.00 0.00 0.00 33 1009.9
20260503192004 14 291 6.4 14.5 0.00 0.00 0.00 33 1010.0
20260503190504 15 191 8.0 22.5 0.00 0.00 0.00 33 1010.1
20260503190003 15 189 6.4 14.5 0.00 0.00 0.00 32 1010.0
20260503184504 15 194 4.8 14.5 0.00 0.00 0.00 32 1010.2
20260503184004 15 191 4.8 12.9 0.00 0.00 0.00 33 1010.1
20260503183504 15 191 8.0 14.5 0.00 0.00 0.00 34 1010.1
20260503182503 14 192 6.4 12.9 0.00 0.00 0.00 33 1010.1
20260503182004 15 194 4.8 12.9 0.00 0.00 0.00 32 1010.0
20260503181504 15 189 8.0 14.5 0.00 0.00 0.00 32 1009.9
20260503180504 15 191 4.8 12.9 0.00 0.00 0.00 32 1009.8
20260503180004 15 192 9.7 19.3 0.00 0.00 0.00 30 1010.0